This demonstration page uses our WeatherBlox Daily Observations layout. Learn more.

Hourly Observations for April 25, 2019

Temp ( °F °C ) Dew Point ( °F °C ) Humidity (%) Winds ( mph kmh ) Pressure ( in mb ) Visibility ( mi km ) Precip ( " mm )
12:15 am 00:15 Partly Cloudy 59 15 52 11 77 77 Calm 29.91 1013 10 16.09344 0 0
12:35 am 00:35 Clear 63 17 48 9 59 59 Calm 29.91 1013 10 16.09344 0 0
12:55 am 00:55 Clear 61 16 50 10 68 68 Calm 29.91 1013 10 16.09344 0 0
1:15 am 01:15 Partly Cloudy 63 17 46 8 56 56 Calm 29.91 1013 10 16.09344 0 0
1:35 am 01:35 Partly Cloudy 59 15 52 11 77 77 Calm 29.91 1013 10 16.09344 0 0
1:55 am 01:55 Cloudy 59 15 52 11 77 77 Calm 29.91 1013 10 16.09344 0 0
2:15 am 02:15 Cloudy 59 15 50 10 72 72 Calm 29.91 1013 10 16.09344 0 0
2:35 am 02:35 Cloudy 59 15 50 10 72 72 Calm 29.91 1013 10 16.09344 0 0
2:55 am 02:55 Mostly Cloudy 59 15 50 10 72 72 Calm 29.91 1013 10 16.09344 0 0
3:15 am 03:15 Cloudy 61 16 46 8 59 59 NNE 3 6 29.91 1013 10 16.09344 0 0
3:35 am 03:35 Cloudy 61 16 48 9 63 63 Calm 29.91 1013 10 16.09344 0 0
3:55 am 03:55 Mostly Cloudy 59 15 50 10 72 72 Calm 29.91 1013 10 16.09344 0 0
4:15 am 04:15 Mostly Cloudy 59 15 48 9 68 68 Calm 29.91 1013 10 16.09344 0 0
4:35 am 04:35 Cloudy 59 15 48 9 68 68 Calm 29.91 1013 10 16.09344 0 0
4:55 am 04:55 Cloudy 61 16 46 8 59 59 Calm 29.91 1013 10 16.09344 0 0
5:15 am 05:15 Cloudy 61 16 45 7 55 55 Calm 29.91 1013 10 16.09344 0 0
5:35 am 05:35 Cloudy 61 16 46 8 59 59 Calm 29.91 1013 10 16.09344 0 0
5:55 am 05:55 Cloudy 59 15 48 9 68 68 Calm 29.91 1013 10 16.09344 0 0
6:15 am 06:15 Mostly Cloudy 57 14 50 10 77 77 Calm 29.94 1014 10 16.09344 0 0
6:35 am 06:35 Cloudy 59 15 50 10 72 72 Calm 29.94 1014 10 16.09344 0 0
6:55 am 06:55 Partly Cloudy 59 15 48 9 68 68 Calm 29.94 1014 10 16.09344 0 0
7:15 am 07:15 Partly Cloudy 59 15 48 9 68 68 Calm 29.94 1014 10 16.09344 0 0
7:35 am 07:35 Partly Cloudy 59 15 46 8 63 63 Calm 29.94 1014 10 16.09344 0 0
7:55 am 07:55 Partly Cloudy 61 16 46 8 59 59 Calm 29.94 1014 10 16.09344 0 0
8:15 am 08:15 Partly Cloudy 61 16 48 9 63 63 Calm 29.94 1014 10 16.09344 0 0
8:35 am 08:35 Partly Cloudy 61 16 46 8 59 59 Calm 29.94 1014 10 16.09344 0 0
8:55 am 08:55 Mostly Cloudy 61 16 46 8 59 59 NE 3 6 29.94 1014 10 16.09344 0 0
9:15 am 09:15 Partly Cloudy 61 16 46 8 59 59 NE 3 6 29.94 1014 10 16.09344 0 0
9:35 am 09:35 Sunny 63 17 45 7 52 52 ENE 3 6 29.94 1014 10 16.09344 0 0
10:15 am 10:15 Sunny 63 17 45 7 52 52 ENE 3 6 29.94 1014 10 16.09344 0 0
10:35 am 10:35 Sunny 64 18 45 7 49 49 ENE 5 7 29.94 1014 10 16.09344 0 0
10:55 am 10:55 Sunny 64 18 46 8 52 52 E 6 9 29.94 1014 10 16.09344 0 0
11:15 am 11:15 Sunny 66 19 48 9 52 52 NE 5 7 29.94 1014 10 16.09344 0 0
11:35 am 11:35 Sunny 68 20 46 8 46 46 Calm 29.94 1014 10 16.09344 0 0
11:55 am 11:55 Sunny 68 20 46 8 46 46 ESE 5 7 29.94 1014 10 16.09344 0 0
12:15 pm 12:15 Sunny 70 21 46 8 43 43 SE 7 11 29.91 1013 10 16.09344 0 0
12:35 pm 12:35 Sunny 70 21 45 7 40 40 Calm 29.91 1013 10 16.09344 0 0
12:55 pm 12:55 Partly Cloudy 70 21 46 8 43 43 ESE 3 6 29.91 1013 10 16.09344 0 0
1:15 pm 13:15 Partly Cloudy 70 21 46 8 43 43 SE 7 11 29.91 1013 10 16.09344 0 0
1:35 pm 13:35 Partly Cloudy 72 22 46 8 41 41 E 3 6 29.91 1013 10 16.09344 0 0
1:55 pm 13:55 Partly Cloudy 73 23 46 8 38 38 Calm 29.91 1013 10 16.09344 0 0
2:15 pm 14:15 Partly Cloudy 73 23 46 8 38 38 SE 7 11 29.88 1012 10 16.09344 0 0
2:35 pm 14:35 Partly Cloudy 73 23 46 8 38 38 SSE 10 17 29.88 1012 10 16.09344 0 0
2:55 pm 14:55 Partly Cloudy 75 24 45 7 34 34 E 5 7 29.88 1012 10 16.09344 0 0
3:15 pm 15:15 Mostly Cloudy 73 23 45 7 36 36 SE 3 6 29.88 1012 10 16.09344 0 0
3:35 pm 15:35 Partly Cloudy 73 23 45 7 36 36 S 8 13 29.88 1012 10 16.09344 0 0
3:55 pm 15:55 Mostly Cloudy 75 24 46 8 36 36 S 6 9 29.88 1012 10 16.09344 0 0
4:15 pm 16:15 Partly Cloudy 77 25 46 8 34 34 ESE 3 6 29.88 1012 10 16.09344 0 0
4:35 pm 16:35 Mostly Cloudy 73 23 48 9 41 41 SSW 5 7 29.85 1011 10 16.09344 0 0
4:55 pm 16:55 Cloudy 73 23 46 8 38 38 SE 3 6 29.85 1011 10 16.09344 0 0
5:15 pm 17:15 Mostly Cloudy 73 23 46 8 38 38 SSE 3 6 29.88 1012 10 16.09344 0 0
5:35 pm 17:35 Mostly Cloudy 73 23 45 7 36 36 SSE 3 6 29.85 1011 10 16.09344 0 0
5:55 pm 17:55 Mostly Cloudy 73 23 46 8 38 38 SSE 6 9 29.85 1011 10 16.09344 0 0
6:15 pm 18:15 Mostly Cloudy 73 23 46 8 38 38 Calm 29.85 1011 10 16.09344 0 0
6:35 pm 18:35 Mostly Cloudy 73 23 46 8 38 38 Calm 29.85 1011 10 16.09344 0 0
6:55 pm 18:55 Partly Cloudy 72 22 46 8 41 41 ESE 3 6 29.85 1011 10 16.09344 0 0
7:15 pm 19:15 Mostly Cloudy 72 22 50 10 47 47 Calm 29.85 1011 10 16.09344 0 0
7:35 pm 19:35 Mostly Cloudy 68 20 55 13 64 64 N 3 6 29.85 1011 10 16.09344 0 0
7:55 pm 19:55 Partly Cloudy 68 20 54 12 60 60 NNE 5 7 29.85 1011 10 16.09344 0 0
8:15 pm 20:15 Clear 66 19 54 12 64 64 Calm 29.88 1012 10 16.09344 0 0
8:35 pm 20:35 Mostly Cloudy 64 18 54 12 68 68 Calm 29.88 1012 10 16.09344 0 0
8:55 pm 20:55 Cloudy 64 18 54 12 68 68 N 7 11 29.88 1012 10 16.09344 0 0
9:15 pm 21:15 Cloudy 64 18 54 12 68 68 N 7 11 29.91 1013 10 16.09344 0 0
9:35 pm 21:35 Cloudy 63 17 55 13 77 77 N 3 6 29.91 1013 10 16.09344 0 0
9:55 pm 21:55 Cloudy 63 17 55 13 77 77 Calm 29.91 1013 7 11.265408 0 0
10:15 pm 22:15 Cloudy 61 16 59 15 94 94 Calm 29.91 1013 7 11.265408 0 0
10:35 pm 22:35 Cloudy 59 15 59 15 100 100 Calm 29.88 1012 10 16.09344 0 0
10:55 pm 22:55 Cloudy 59 15 59 15 100 100 E 3 6 29.88 1012 10 16.09344 0 0
11:15 pm 23:15 Cloudy 59 15 59 15 100 100 Calm 29.85 1011 10 16.09344 0 0
11:35 pm 23:35 Cloudy 59 15 59 15 100 100 Calm 29.85 1011 10 16.09344 0 0
11:55 pm 23:55 Cloudy 59 15 59 15 100 100 Calm 29.85 1011 5 8.04672 0 0

Powered by AerisWeather